Vorticity
13 14 15 16 16 16 16 15 15 15 15 14 14 15 14 13 12 12 12 13 12 12 12 12 11 11 11 11 11 12 12 12 10 8 9 8 8 7 6 5 5 4
10 10 10 12 13 15 16 16 17 18 17 16 15 15 15 15 16 15 13 13 12 11 11 11 11 11 11 11 12 12 12 11 11 10 9 10 10 10 8 7 6 5
8 8 9 10 11 12 13 14 16 16 16 17 19 23 25 22 19 15 13 13 13 13 13 12 12 12 13 13 13 13 14 12 11 11 11 11 12 12 11 9 8 6
10 10 10 11 12 13 14 14 15 15 14 16 16 16 18 19 18 18 19 18 15 12 11 11 13 13 12 13 12 12 12 12 12 11 12 13 13 14 14 12 11 10
10 11 12 13 13 14 16 17 18 16 14 14 9 2 1 10 16 15 10 6 6 9 12 15 17 17 15 14 14 14 13 13 15 14 14 15 15 15 15 14 13 12
10 13 15 16 18 19 22 23 20 17 14 13 14 10 2 1 2 -2 -4 1 11 19 25 26 21 19 21 21 19 19 19 18 19 18 18 18 17 16 15 14 14 13
13 16 18 20 22 24 26 26 19 16 14 10 13 18 15 9 7 8 12 14 14 16 17 13 6 6 16 20 19 18 18 18 18 17 17 17 18 18 18 16 15 15
23 25 24 24 24 23 24 23 16 14 18 16 14 17 15 14 13 11 11 9 8 13 15 9 4 7 15 15 10 9 11 13 15 16 16 18 18 17 18 17 16 16
30 28 24 20 19 18 19 21 14 8 13 19 22 21 14 15 17 11 6 9 16 24 24 19 18 20 20 15 8 8 13 15 14 15 15 16 17 16 15 15 14 14
26 22 21 15 11 11 13 18 14 3 2 7 13 17 15 18 23 20 19 22 21 18 14 13 18 20 17 14 13 14 17 16 14 13 14 13 14 15 14 13 14 13
18 18 20 14 10 11 12 16 17 10 7 10 9 6 5 12 19 19 19 16 7 3 5 8 13 16 14 14 15 15 14 14 12 11 12 12 12 13 13 13 13 13
15 16 17 13 12 14 14 15 19 18 17 20 20 13 6 8 14 12 9 5 2 5 9 10 11 11 9 9 11 12 12 11 11 9 9 10 10 10 10 11 12 12
19 16 16 14 12 12 14 16 17 17 16 16 18 19 14 12 11 8 7 8 9 9 6 6 8 8 7 7 9 11 11 10 8 6 4 5 5 6 6 6 7 9
16 13 12 13 13 12 13 14 14 14 14 13 13 14 14 13 12 10 9 7 9 9 5 2 2 5 8 5 2 5 7 9 11 8 6 6 5 5 6 6 6 8
10 11 11 12 15 14 12 11 13 12 10 11 12 11 11 10 10 11 10 7 7 9 9 4 -3 -1 6 4 0 2 4 9 14 13 11 12 12 11 11 11 10 9
12 12 12 13 15 14 12 12 12 11 9 8 10 10 11 10 9 10 10 8 7 8 10 10 4 1 3 2 1 2 4 9 14 14 13 12 10 11 10 9 8 6
18 13 12 15 16 14 13 13 12 10 9 8 10 10 11 12 12 13 14 13 13 11 9 9 8 7 6 3 3 2 1 6 10 10 10 8 4 4 3 1 2 4
16 12 11 13 14 14 14 14 13 12 10 9 11 12 11 12 11 11 13 15 17 17 15 12 12 12 10 7 7 7 5 4 6 4 2 1 1 2 5 6 6 7
16 13 14 14 14 15 15 15 14 13 13 11 11 10 10 9 9 8 8 9 11 13 15 16 16 16 15 12 11 11 7 2 4 6 4 3 4 4 5 8 9 8
17 17 16 14 13 12 11 13 13 12 12 12 12 11 10 10 11 11 10 8 8 9 10 11 13 14 16 16 15 15 10 2 -0 3 6 8 10 9 6 3 5 7
12 15 14 12 10 9 7 7 8 9 11 12 12 12 12 12 12 11 11 10 10 11 11 10 11 11 12 14 15 17 16 10 4 2 2 2 3 7 10 8 6 6
5 8 11 11 10 9 8 7 6 7 8 9 9 10 10 11 11 11 11 11 10 9 9 10 10 10 11 12 13 15 16 15 11 8 8 5 1 0 4 8 9 10
3 4 5 7 8 8 9 9 8 8 7 8 8 9 9 8 9 10 10 10 10 9 8 9 10 10 10 11 11 13 15 15 14 12 13 14 13 10 7 7 7 8
7 5 5 5 6 6 6 7 8 7 7 8 8 8 9 9 8 9 9 9 10 10 9 9 9 9 10 10 11 11 12 13 13 13 12 11 13 14 14 12 10 8
9 8 7 6 5 5 5 5 6 6 7 7 7 6 7 7 7 7 7 7 7 8 9 9 8 8 9 8 9 9 10 10 11 12 11 10 9 9 10 11 12 11
11 11 11 10 9 8 6 5 4 4 4 4 5 5 4 4 4 5 4 5 4 3 5 6 6 6 7 7 6 6 7 8 8 7 7 7 7 6 5 5 6 7
Height
5557 5556 5555 5553 5553 5552 5551 5551 5551 5550 5549 5549 5548 5548 5548 5548 5547 5548 5548 5548 5548 5548 5548 5548 5549 5550 5551 5552 5552 5553 5554 5555 5556 5557 5558 5559 5559 5560 5561 5562 5562 5563
5546 5545 5544 5543 5541 5540 5539 5539 5538 5538 5537 5537 5537 5537 5537 5536 5536 5536 5536 5537 5537 5537 5536 5537 5537 5538 5539 5540 5540 5541 5542 5543 5544 5545 5546 5547 5548 5549 5550 5551 5552 5553
5535 5534 5533 5532 5531 5530 5528 5528 5527 5527 5526 5525 5525 5525 5525 5525 5524 5524 5525 5525 5525 5525 5525 5525 5526 5527 5527 5527 5528 5529 5530 5531 5532 5534 5535 5535 5536 5538 5539 5540 5541 5542
5524 5523 5522 5521 5520 5519 5518 5517 5516 5516 5515 5515 5515 5515 5514 5514 5513 5513 5513 5514 5514 5514 5514 5515 5515 5515 5516 5516 5517 5517 5518 5519 5521 5522 5523 5524 5525 5526 5528 5529 5530 5531
5512 5511 5510 5509 5509 5508 5507 5506 5505 5505 5505 5505 5505 5505 5505 5504 5503 5503 5503 5502 5503 5503 5504 5504 5504 5504 5505 5505 5506 5506 5507 5508 5509 5511 5512 5512 5514 5515 5516 5518 5519 5520
5499 5498 5497 5497 5497 5496 5496 5495 5494 5494 5494 5493 5494 5494 5494 5494 5493 5492 5492 5492 5492 5493 5493 5494 5494 5494 5494 5495 5496 5496 5497 5498 5499 5500 5501 5502 5503 5504 5506 5507 5508 5509
5487 5486 5485 5484 5484 5484 5484 5484 5483 5483 5483 5483 5483 5483 5483 5482 5482 5482 5482 5482 5482 5482 5483 5484 5484 5484 5484 5485 5486 5487 5487 5488 5488 5489 5490 5491 5492 5494 5495 5496 5497 5498
5475 5474 5473 5473 5472 5473 5473 5473 5473 5473 5473 5472 5472 5473 5473 5472 5472 5472 5473 5472 5472 5473 5473 5474 5474 5474 5475 5476 5477 5477 5478 5478 5479 5480 5481 5482 5483 5484 5485 5486 5487 5488
5462 5462 5461 5461 5461 5461 5462 5462 5462 5462 5463 5462 5462 5462 5462 5462 5462 5463 5463 5463 5463 5463 5464 5464 5464 5465 5465 5466 5467 5468 5469 5470 5470 5471 5471 5472 5473 5474 5475 5476 5477 5478
5449 5450 5450 5450 5450 5450 5450 5451 5451 5451 5452 5452 5452 5452 5452 5452 5452 5453 5453 5453 5453 5454 5454 5455 5455 5456 5456 5457 5458 5459 5460 5461 5461 5462 5463 5463 5464 5465 5466 5466 5467 5468
5437 5438 5438 5439 5439 5439 5439 5440 5440 5440 5441 5441 5442 5442 5442 5442 5443 5443 5443 5444 5444 5444 5445 5445 5446 5447 5448 5448 5449 5450 5451 5452 5452 5453 5453 5454 5455 5455 5456 5457 5458 5458
5426 5427 5427 5427 5428 5428 5429 5429 5429 5430 5430 5430 5431 5431 5432 5433 5433 5434 5434 5434 5434 5435 5435 5436 5437 5438 5439 5440 5440 5441 5442 5442 5443 5444 5444 5445 5445 5446 5447 5448 5448 5449
5416 5417 5417 5417 5418 5418 5418 5419 5419 5420 5420 5420 5421 5421 5422 5422 5423 5424 5424 5425 5425 5426 5426 5427 5428 5429 5430 5431 5432 5433 5433 5433 5434 5434 5435 5436 5436 5437 5438 5438 5439 5440
5407 5408 5408 5408 5408 5409 5409 5409 5410 5410 5411 5411 5411 5412 5412 5412 5413 5414 5414 5415 5416 5416 5417 5418 5419 5420 5421 5423 5424 5424 5424 5424 5425 5425 5426 5426 5427 5428 5428 5429 5430 5430
5398 5398 5399 5399 5399 5399 5400 5400 5400 5401 5401 5402 5402 5402 5403 5403 5403 5403 5404 5405 5405 5406 5408 5408 5409 5411 5413 5415 5415 5415 5414 5415 5415 5416 5416 5417 5418 5419 5419 5420 5420 5421
5390 5390 5390 5390 5390 5390 5390 5391 5391 5392 5392 5393 5393 5393 5393 5394 5394 5394 5394 5395 5395 5396 5397 5398 5399 5401 5404 5407 5407 5406 5405 5405 5406 5406 5407 5408 5408 5409 5410 5410 5411 5412
5382 5382 5382 5382 5382 5382 5382 5382 5382 5383 5383 5383 5384 5384 5384 5384 5385 5385 5385 5386 5386 5386 5387 5388 5389 5390 5393 5397 5399 5397 5395 5396 5396 5396 5397 5398 5399 5399 5400 5401 5402 5402
5374 5374 5374 5374 5374 5374 5373 5373 5374 5374 5374 5375 5375 5375 5375 5375 5375 5375 5376 5376 5377 5377 5377 5378 5378 5379 5381 5385 5390 5390 5387 5385 5386 5387 5387 5388 5389 5389 5390 5391 5392 5392
5367 5366 5366 5366 5366 5365 5365 5365 5365 5365 5365 5366 5366 5366 5366 5366 5366 5366 5366 5366 5367 5367 5368 5368 5368 5369 5371 5373 5378 5382 5380 5376 5376 5377 5378 5378 5379 5379 5380 5381 5382 5382
5359 5359 5358 5358 5357 5357 5357 5357 5357 5357 5357 5357 5357 5357 5358 5358 5357 5357 5357 5357 5357 5357 5358 5358 5358 5359 5360 5361 5365 5371 5372 5369 5366 5366 5367 5368 5369 5369 5370 5371 5372 5372
5351 5351 5350 5350 5349 5349 5348 5348 5348 5348 5348 5348 5348 5348 5349 5349 5349 5349 5348 5348 5348 5347 5348 5348 5348 5349 5349 5350 5353 5359 5362 5360 5358 5357 5357 5358 5359 5359 5360 5361 5362 5362
5342 5342 5341 5341 5340 5340 5339 5339 5339 5339 5339 5339 5339 5339 5339 5340 5340 5340 5340 5339 5339 5338 5338 5338 5339 5339 5339 5339 5341 5346 5350 5350 5348 5348 5347 5347 5348 5349 5350 5351 5351 5352
5333 5332 5332 5331 5331 5331 5330 5330 5330 5330 5330 5330 5330 5330 5330 5330 5330 5330 5330 5330 5330 5330 5329 5328 5329 5329 5329 5329 5330 5333 5337 5339 5339 5339 5337 5336 5337 5338 5339 5340 5341 5342
5324 5323 5323 5322 5321 5321 5321 5320 5320 5320 5320 5320 5320 5320 5320 5320 5320 5320 5321 5321 5321 5321 5320 5320 5319 5319 5319 5319 5319 5320 5324 5327 5329 5329 5326 5325 5326 5327 5328 5329 5330 5330
5315 5314 5313 5313 5312 5312 5311 5311 5311 5310 5310 5310 5310 5310 5310 5310 5310 5310 5310 5311 5311 5311 5311 5310 5310 5309 5308 5308 5308 5309 5310 5314 5318 5318 5316 5316 5317 5316 5316 5317 5318 5318
5305 5304 5304 5303 5303 5302 5302 5302 5301 5301 5301 5301 5300 5300 5300 5300 5300 5300 5300 5300 5300 5300 5300 5300 5300 5299 5298 5297 5297 5297 5298 5301 5305 5307 5306 5305 5306 5305 5305 5305 5306 5306